Lid_Strength_Index
-1 -1 -1 -0 -0 -0 -0 -0 -0 -0 -0 -1 -1 -1 -1 -1 -0 0 4 2 1 -1 1 3 3 3 3 4 4 4 7 9 8 8 8 5 6 5 5 5 5 4 4 3 1
-1 -1 -1 -0 -0 -0 -0 -0 -0 -0 -0 -1 -1 -1 -1 -1 1 4 1 -1 -1 -1 4 4 5 4 5 5 5 6 8 8 7 6 7 6 6 5 6 6 6 5 4 2 2
-1 -1 -1 -0 -0 -0 -0 -0 -0 -0 -1 -1 -1 -1 -1 -1 4 4 -1 -1 -1 1 3 4 4 5 6 5 6 7 8 7 8 7 6 6 6 5 6 7 5 5 4 4 3
-1 -1 -1 -0 -0 -0 -0 -0 -0 -0 -1 -1 -1 -1 -1 0 9 2 -1 -1 -1 2 3 4 5 6 7 8 6 8 7 7 7 7 7 7 6 6 6 5 5 4 4 4 3
0 -1 -1 -1 -0 -0 -0 -0 -0 -0 -1 -1 -1 -1 1 5 5 2 -1 -0 2 3 4 5 6 6 8 7 7 8 8 7 7 7 7 7 7 7 6 5 4 5 5 4 3
1 0 -0 -0 -0 -0 -0 -1 -1 -1 -1 -1 -1 -1 3 8 1 2 2 3 3 3 4 4 5 5 7 7 7 7 7 7 7 7 7 8 7 7 6 5 5 5 5 5 4
0 -1 -1 -1 -1 -1 -1 -1 -1 -1 -1 -1 -1 1 4 6 1 1 3 3 3 3 5 4 4 6 6 7 6 7 8 7 7 7 7 7 8 8 6 6 6 6 5 5 4
1 1 -0 -1 -1 -1 -1 -1 -1 -1 -1 -1 -1 2 6 2 0 3 3 3 3 3 3 4 4 5 6 6 7 8 8 10 7 7 7 7 10 7 6 6 6 6 5 5 5
1 1 0 0 -1 -1 -1 -1 -1 -1 -1 -1 1 3 7 1 3 2 2 4 4 3 4 4 4 6 6 8 9 8 11 10 9 7 8 8 9 7 6 6 6 5 5 5 5
1 1 1 -0 0 0 -1 -1 -1 -1 -0 1 1 5 5 6 3 3 3 3 4 4 5 5 6 8 8 9 12 11 11 10 10 8 9 9 9 7 6 6 6 6 6 4 5
1 1 1 0 0 -0 0 1 4 5 3 5 5 6 5 3 2 3 3 4 4 5 8 6 9 10 9 8 8 10 10 11 9 8 10 10 9 8 7 7 7 6 6 6 5
1 1 0 0 -0 -0 -0 4 3 3 7 3 4 4 4 3 5 4 3 6 6 8 7 8 11 8 7 8 9 9 11 11 9 8 10 10 10 8 7 7 6 6 6 5 5
1 1 0 0 0 0 2 2 1 1 7 6 4 4 4 4 6 5 4 5 7 8 8 10 9 8 8 9 10 10 11 11 11 9 9 10 11 9 7 6 6 6 5 5 5
2 2 1 1 2 1 3 0 1 1 9 8 7 5 4 4 6 3 4 5 7 9 8 9 8 9 9 10 9 12 9 10 10 11 13 10 14 10 8 8 7 6 5 5 5
4 4 2 1 2 4 2 -0 0 2 18 8 8 3 4 6 6 6 4 5 8 8 8 10 10 10 11 10 9 10 9 9 10 11 11 11 13 11 9 9 8 6 5 4 4
4 4 3 2 2 2 1 1 2 13 19 11 7 8 8 7 7 6 6 5 5 7 8 9 8 8 9 9 8 9 9 10 10 10 15 11 12 12 10 9 8 6 6 5 6
4 4 4 2 4 2 2 4 14 18 8 12 11 9 9 10 9 8 9 9 10 12 11 9 9 8 8 10 9 9 10 14 16 16 16 10 12 11 8 7 7 7 6 5 7
4 5 4 4 1 2 5 10 17 14 11 8 9 9 11 9 9 9 10 11 8 9 10 12 13 9 8 8 10 10 10 13 18 17 14 12 14 11 7 6 6 6 5 5 6
5 4 5 4 3 2 9 15 15 13 9 10 10 12 12 10 10 10 10 10 8 8 12 12 12 8 8 7 7 10 13 9 13 14 16 13 11 8 7 7 6 6 5 5 6
5 6 6 3 3 4 11 14 12 10 9 9 13 11 14 12 12 11 11 9 9 7 7 10 14 10 10 8 8 9 8 13 13 19 19 14 13 12 9 8 6 6 6 5 5
5 8 6 2 2 7 13 12 10 8 9 11 12 13 13 13 12 13 13 10 9 9 8 9 12 13 11 11 11 11 12 11 11 13 17 18 14 8 8 7 7 7 7 7 6
6 11 3 1 8 8 12 11 9 9 8 10 9 10 12 11 13 13 13 10 8 8 11 9 12 16 14 9 9 10 11 11 15 16 14 15 15 7 7 8 8 8 7 8 7
8 8 3 4 11 11 10 11 10 10 9 9 10 9 9 11 13 12 11 8 8 9 10 9 14 18 16 12 10 12 10 10 11 13 17 18 15 8 8 7 7 8 8 7 8
8 12 7 7 6 9 11 11 12 10 10 8 9 8 9 11 9 11 11 9 7 8 8 8 13 15 16 15 12 14 12 11 12 17 15 16 13 10 8 8 7 6 5 6 7
7 10 8 12 10 9 9 10 11 12 10 10 11 10 10 12 11 11 10 10 9 8 9 10 15 13 13 12 12 13 14 12 14 13 16 13 12 10 8 8 7 6 6 6 7
7 9 8 9 8 9 9 10 11 10 9 10 11 10 10 12 11 12 10 11 11 9 10 9 14 13 15 13 12 14 12 12 12 11 12 12 12 8 7 6 7 7 7 7 6
4 5 7 9 9 10 10 10 10 8 9 8 8 9 10 8 8 7 7 8 9 11 11 11 13 14 16 12 13 16 13 12 11 10 11 14 10 7 8 7 7 7 7 6 6